[[{"header":{"parameterUnit":"m.s-1","parameterCategory":1,"la1":30.2991,"la2":30.254,"lo1":-89.0895,"lo2":-89.0444,"dy":0.0017,"dx":0.0017,"nx":28,"ny":28,"refTime":"2025-08-03T21:00:00:Z","depth":0,"parameterNumber":2,"parameterNumberName":"U-component_of_WINDS"},"data":[0,0,0,0,0,0,0,0,0,0,0,0,0,0,0,0,0,0,0,0,0,0,0,0,0,0,0,0,0,0,0,0,0,0,0,0,0,0,0,0,0,0,0,0,0,0,0,0,0,0,0,0,0,0,0,0,0,0,-1.9441,-1.9442,0,-1.9583,-1.9584,-1.9586,-1.9564,-1.9562,-1.9559,-1.9557,-1.9704,-1.971,-1.9716,0,0,0,0,0,0,0,0,0,0,0,0,0,-1.9152,-1.9158,-1.9441,-1.9442,-1.9444,-1.9582,-1.9584,-1.9586,-1.9565,-1.9562,-1.9559,-1.9556,-1.9702,-1.971,-1.9717,0,0,0,0,0,0,0,0,0,0,0,0,0,-1.9284,-1.9159,-1.944,-1.945,-1.9452,-1.9582,-1.9584,-1.9587,-1.9565,-1.9562,-1.9558,-1.9555,-1.97,-1.9709,-1.9718,-1.9848,0,0,-1.9746,-1.975,0,0,0,0,0,0,0,0,-1.9277,-1.9295,-1.9447,-1.945,-1.9452,-1.9552,-1.9537,-1.9674,-1.9566,-1.9522,-1.9557,-1.9553,-1.9657,-1.9669,-1.9704,-1.9855,-1.9861,-1.9747,-1.9753,-1.9757,-1.9759,0,0,0,0,0,0,0,-1.9268,-1.9289,-1.9497,-1.9449,-1.9452,-1.9448,-1.9462,-1.9563,-1.9608,-1.9526,-1.9525,-1.9542,-1.9657,-1.9695,-1.9707,-1.9863,-1.9747,-1.9755,-1.9761,-1.9764,-2.0127,-2.0131,0,0,0,0,0,0,-1.9255,-1.9281,-1.9492,-1.9501,-1.9354,-1.9456,-1.9472,-1.9524,-1.9607,-1.9616,-1.9545,-1.954,-1.9681,-1.9696,-1.9712,-1.9869,-1.9757,-1.9765,-1.9771,-2.0123,-2.0128,-2.0132,0,0,0,0,0,0,-1.9249,-1.9275,-1.9487,-1.9391,-1.9417,-1.9465,-1.9522,-1.9528,-1.9566,-1.9621,-1.9629,-1.9575,-1.9679,-1.9699,-1.9814,-1.9874,-1.9769,-1.9778,-2.0118,-2.0124,-2.013,-2.0184,0,0,0,0,0,0,-1.9241,-1.9272,-1.9322,-1.9392,-1.9423,-1.9586,-1.9526,-1.9534,-1.9582,-1.9577,-1.9651,-1.966,-1.9677,-1.98,-1.9823,-1.9885,-1.9785,-2.0113,-2.0121,-2.0128,-2.0177,-2.0191,-2.0204,0,0,0,0,0,-1.9231,-1.9332,-1.9325,-1.935,-1.9485,-1.9589,-1.9607,-1.9624,-1.9587,-1.9637,-1.9672,-1.9658,-1.9864,-1.9812,-1.9838,-1.9903,-2.0109,-2.0118,-2.0127,-2.0171,-2.0189,-2.0203,0,0,0,0,0,0,-1.9269,-1.9341,-1.9334,-1.9461,-1.9519,-1.9585,-1.9649,-1.9642,-1.9712,-1.9705,-1.9724,-1.9741,-1.9857,-1.9892,-1.9833,-2.0033,-1.9981,-1.9996,-2.0006,-2.0023,-2.0036,-2.0025,-1.9793,0,0,0,0,0,-1.9291,-1.9369,-1.9429,-1.9535,-1.9564,-1.9602,-1.9648,-1.9656,-1.9717,-1.9742,-1.9786,-1.9846,-1.9924,-1.9975,-2.0051,-2.0182,-2.0198,-2.024,-2.0253,-2.0263,-2.0276,-2.0348,-2.0367,-2.0162,-2.0162,-2.0162,0,0,-1.934,-1.9389,-1.9437,-1.9544,-1.959,-1.967,-1.9623,-1.971,-1.977,-1.9755,-1.9866,-1.99,-1.9969,-2.0092,-2.0149,-2.0125,-2.0336,-2.0275,-2.0283,-2.029,-2.0359,-2.0378,-2.0395,-2.0168,-2.0167,-2.0166,0,0,-1.9469,-1.9514,-1.9607,-1.9654,-1.9724,-1.9748,-1.9771,-1.9839,-1.9861,-1.9972,-1.9962,-2.0034,-2.0169,-2.0218,-2.026,-2.0408,-2.0397,-2.0432,-2.05,-2.057,-2.0586,-2.06,-2.0653,-2.0671,-2.0444,-2.0444,-2.0444,0,-1.9521,-1.9641,-1.9656,-1.9745,-1.9792,-1.9781,-1.9876,-1.9921,-2.0012,-2.0045,-2.0016,-2.0184,-2.023,-2.0365,-2.04,-2.0435,-2.0462,-2.0423,-2.0582,-2.0597,-2.0611,-2.0661,-2.068,-2.0448,-2.0447,-2.0447,-2.0447,0,-1.97,-1.9784,-1.9851,-1.9938,-1.9993,-2.0084,-2.0114,-2.0167,-2.0171,-2.0198,-2.0311,-2.0365,-2.0451,-2.0484,-2.0488,-2.0619,-2.0602,-2.0578,-2.0526,-2.0634,-2.0681,-2.07,-2.0453,-2.0452,-2.0451,-2.045,0,0,-1.9858,-1.9952,-1.9976,-2.0016,-2.0092,-2.0157,-2.0248,-2.0331,-2.0376,-2.0439,-2.0516,-2.0629,-2.0607,-2.0656,-2.0666,-2.0727,-2.084,-2.0695,-2.0697,-2.072,-2.0987,-2.1004,-2.1026,-2.0833,-2.0837,-2.0839,-2.0981,0,-1.9994,-2.0153,-2.017,-2.0312,-2.0389,-2.0381,-2.046,-2.0515,-2.0543,-2.0613,-2.0644,-2.0724,-2.0689,-2.0718,-2.0778,-2.0813,-2.0893,-2.0803,-2.0904,-2.0907,-2.0887,-2.1051,-2.107,-2.12,-2.0999,-2.1002,-2.1005,0,-2.0174,-2.0242,-2.0392,-2.0457,-2.049,-2.056,-2.0637,-2.0704,-2.0767,-2.0783,-2.0837,-2.0838,-2.0932,-2.0877,-2.1006,-2.0944,-2.0986,-2.101,-2.1015,-2.1025,-2.0962,-2.1065,-2.1242,-2.1262,-2.1034,-2.1032,-2.103,0,-2.0273,-2.0402,-2.0508,-2.0542,-2.0621,-2.067,-2.0706,-2.0765,-2.0813,-2.0881,-2.0913,-2.0991,-2.1033,-2.1094,-2.1116,-2.1074,-2.1244,-2.1191,-2.126,-2.1259,-2.1296,-2.1293,-2.1483,-2.1324,-2.1324,-2.1323,-2.1323,0,-2.0423,-2.0515,-2.0553,-2.0619,-2.0722,-2.074,-2.0841,-2.0874,-2.0927,-2.0998,-2.0996,-2.1063,-2.1089,-2.1161,-2.118,-2.1283,-2.1303,-2.1318,-2.1322,-2.1318,-2.1316,-2.1346,-2.1337,-2.1329,-2.1327,-2.1326,-2.1325,0,-2.0551,-2.0581,-2.0696,-2.076,-2.0779,-2.0852,-2.0907,-2.0971,-2.0997,-2.1088,-2.111,-2.1152,-2.1237,-2.1265,-2.1367,-2.138,-2.15,-2.1497,-2.1479,-2.148,-2.1547,-2.154,-2.1761,-2.1791,-2.1613,-2.1615,-2.1616,0,-2.0645,-2.0716,-2.0788,-2.0835,-2.0872,-2.0949,-2.0998,-2.1019,-2.1071,-2.1147,-2.1201,-2.1285,-2.1352,-2.1487,-2.1527,-2.1605,-2.1603,-2.1675,-2.1615,-2.1608,-2.1603,-2.1599,-2.1606,-2.1686,-2.1688,-2.169,-2.1691,0,-2.0808,-2.0819,-2.089,-2.0967,-2.1026,-2.1087,-2.1146,-2.1185,-2.1215,-2.1273,-2.1359,-2.1411,-2.1515,-2.1598,-2.1677,-2.1714,-2.1708,-2.171,-2.173,-2.1726,-2.1713,-2.1721,-2.1509,-2.1704,-2.1703,-2.1702,-2.1701,-2.1701,-2.0922,-2.0984,-2.1044,-2.1123,-2.117,-2.1225,-2.1288,-2.1322,-2.1393,-2.1479,-2.1487,-2.158,-2.164,-2.1746,-2.1786,-2.1859,-2.1839,-2.1868,-2.1875,-2.1882,-2.1887,-2.1702,-2.1874,-2.1873,-2.1873,-2.1873,-2.1872,0,-2.1084,-2.1123,-2.1195,-2.1278,-2.134,-2.1328,-2.1393,-2.1446,-2.1527,-2.1584,-2.1651,-2.1749,-2.1829,-2.1875,-2.1955,-2.2004,-2.2003,-2.2024,-2.2021,-2.2029,-2.19,-2.1875,-2.2024,-2.2024,-2.2024,-2.2024,-2.2023,-2.2023,-2.1176,-2.128,-2.1298,-2.1425,-2.1463,-2.1553,-2.1591,-2.1642,-2.1687,-2.1797,-2.1863,-2.1892,-2.1945,-2.2029,-2.2101,-2.2113,-2.2142,-2.2165,-2.2175,-2.2054,-2.2038,-2.2023,-2.1999,-2.2172,-2.2172,-2.2297,-2.2298,-2.2299]},{"header":{"parameterUnit":"m.s-1","parameterCategory":1,"la1":30.2991,"la2":30.254,"lo1":-89.0895,"lo2":-89.0444,"dy":0.0017,"dx":0.0017,"nx":28,"ny":28,"refTime":"2025-08-03T21:00:00:Z","depth":0,"parameterNumber":3,"parameterNumberName":"V-component_of_WINDS"},"data":[0,0,0,0,0,0,0,0,0,0,0,0,0,0,0,0,0,0,0,0,0,0,0,0,0,0,0,0,0,0,0,0,0,0,0,0,0,0,0,0,0,0,0,0,0,0,0,0,0,0,0,0,0,0,0,0,0,0,-3.1456,-3.1455,0,-3.1381,-3.138,-3.138,-3.1283,-3.1282,-3.128,-3.1279,-3.1202,-3.1201,-3.1201,0,0,0,0,0,0,0,0,0,0,0,0,0,-3.1515,-3.1514,-3.1456,-3.1455,-3.1454,-3.1381,-3.138,-3.1379,-3.1283,-3.1281,-3.128,-3.1278,-3.1202,-3.1202,-3.1201,0,0,0,0,0,0,0,0,0,0,0,0,0,-3.147,-3.1514,-3.1456,-3.1398,-3.1392,-3.1382,-3.138,-3.1379,-3.1284,-3.1281,-3.1279,-3.1277,-3.1202,-3.1202,-3.1201,-3.1242,0,0,-3.1198,-3.1198,0,0,0,0,0,0,0,0,-3.1472,-3.1467,-3.1407,-3.1402,-3.1395,-3.1339,-3.1373,-3.1333,-3.1284,-3.1325,-3.1278,-3.1276,-3.125,-3.1245,-3.1236,-3.1239,-3.1235,-3.1198,-3.1197,-3.1197,-3.1197,0,0,0,0,0,0,0,-3.1475,-3.147,-3.1426,-3.1406,-3.1399,-3.1375,-3.1366,-3.1365,-3.1301,-3.1321,-3.1314,-3.1306,-3.1246,-3.1237,-3.1233,-3.1234,-3.1198,-3.1197,-3.1197,-3.1196,-3.1264,-3.1267,0,0,0,0,0,0,-3.1487,-3.1473,-3.1429,-3.1424,-3.1429,-3.1375,-3.1365,-3.1359,-3.1301,-3.129,-3.1308,-3.1302,-3.1239,-3.1234,-3.123,-3.1273,-3.1197,-3.1196,-3.1196,-3.1262,-3.1265,-3.1267,0,0,0,0,0,0,-3.1489,-3.1484,-3.1432,-3.1447,-3.1438,-3.1377,-3.1371,-3.1359,-3.135,-3.1291,-3.1279,-3.1311,-3.1237,-3.1231,-3.1239,-3.1269,-3.1196,-3.1195,-3.1259,-3.1263,-3.1266,-3.136,0,0,0,0,0,0,-3.1491,-3.1486,-3.1501,-3.1448,-3.1438,-3.1443,-3.1373,-3.1359,-3.1349,-3.134,-3.1291,-3.128,-3.1235,-3.1241,-3.1238,-3.1266,-3.1194,-3.1256,-3.1261,-3.1265,-3.1354,-3.1366,-3.1377,0,0,0,0,0,-3.1494,-3.1531,-3.1503,-3.1498,-3.1456,-3.1445,-3.1439,-3.1386,-3.1352,-3.1366,-3.1328,-3.1282,-3.1266,-3.1243,-3.1239,-3.1267,-3.1254,-3.126,-3.1265,-3.1349,-3.1364,-3.1377,0,0,0,0,0,0,-3.159,-3.1523,-3.1491,-3.1512,-3.1485,-3.1429,-3.1446,-3.1404,-3.1386,-3.1379,-3.1314,-3.1304,-3.1319,-3.1294,-3.1269,-3.1303,-3.1253,-3.1258,-3.1318,-3.1332,-3.1343,-3.1349,-3.1194,0,0,0,0,0,-3.1614,-3.1611,-3.1552,-3.1577,-3.1565,-3.1508,-3.1501,-3.1463,-3.1432,-3.142,-3.1382,-3.1354,-3.1342,-3.1336,-3.1322,-3.135,-3.1337,-3.1367,-3.1379,-3.1388,-3.1393,-3.1403,-3.1415,-3.1285,-3.1285,-3.1284,0,0,-3.1663,-3.1626,-3.1628,-3.1595,-3.157,-3.1567,-3.1499,-3.15,-3.1496,-3.142,-3.1424,-3.1396,-3.136,-3.1377,-3.1383,-3.1357,-3.1426,-3.1395,-3.1403,-3.1402,-3.141,-3.1422,-3.1433,-3.1288,-3.1287,-3.1287,0,0,-3.1751,-3.1723,-3.1739,-3.1715,-3.1677,-3.1638,-3.1642,-3.1592,-3.157,-3.1573,-3.1515,-3.151,-3.1492,-3.1468,-3.1454,-3.153,-3.1486,-3.1528,-3.1587,-3.1598,-3.1608,-3.1617,-3.1642,-3.1652,-3.1533,-3.1533,-3.1533,0,-3.1816,-3.181,-3.1753,-3.1757,-3.1743,-3.1673,-3.1689,-3.1667,-3.1627,-3.1619,-3.159,-3.1564,-3.1535,-3.1545,-3.1563,-3.1554,-3.1556,-3.1533,-3.1611,-3.1619,-3.1627,-3.165,-3.166,-3.1538,-3.1537,-3.1537,-3.1536,0,-3.1892,-3.1889,-3.1906,-3.1868,-3.1857,-3.1867,-3.181,-3.1805,-3.1768,-3.1732,-3.1735,-3.1698,-3.1674,-3.1673,-3.1637,-3.1677,-3.1662,-3.1623,-3.1572,-3.1645,-3.1666,-3.1675,-3.1545,-3.1544,-3.1542,-3.1541,0,0,-3.2038,-3.1968,-3.1975,-3.1956,-3.1908,-3.1904,-3.191,-3.1886,-3.1882,-3.1856,-3.1858,-3.1844,-3.1807,-3.179,-3.175,-3.176,-3.182,-3.1719,-3.1718,-3.1738,-3.1859,-3.1888,-3.1899,-3.1791,-3.1792,-3.1794,-3.1861,0,-3.2116,-3.2122,-3.207,-3.2089,-3.2084,-3.2017,-3.2022,-3.1992,-3.1959,-3.1949,-3.1912,-3.1902,-3.1855,-3.1844,-3.1851,-3.1812,-3.1843,-3.1806,-3.1791,-3.1791,-3.18,-3.191,-3.194,-3.2006,-3.1869,-3.1871,-3.1872,0,-3.2207,-3.2185,-3.2204,-3.2153,-3.2149,-3.2155,-3.2127,-3.212,-3.2084,-3.2059,-3.204,-3.1994,-3.1994,-3.1946,-3.1945,-3.1921,-3.1911,-3.1891,-3.1892,-3.1887,-3.1835,-3.1907,-3.2026,-3.2036,-3.1884,-3.1883,-3.1883,0,-3.2309,-3.2285,-3.2293,-3.2279,-3.222,-3.2225,-3.2201,-3.2163,-3.2151,-3.2128,-3.2119,-3.2096,-3.2083,-3.2066,-3.2014,-3.1984,-3.2018,-3.1966,-3.1995,-3.1997,-3.2005,-3.2005,-3.2123,-3.2002,-3.2002,-3.2001,-3.2001,0,-3.24,-3.2414,-3.2338,-3.2342,-3.2355,-3.2295,-3.2309,-3.2278,-3.2245,-3.2241,-3.2182,-3.218,-3.2112,-3.2102,-3.2061,-3.2065,-3.206,-3.2038,-3.2027,-3.2043,-3.2045,-3.2035,-3.2028,-3.2004,-3.2003,-3.2003,-3.2002,0,-3.2517,-3.2466,-3.247,-3.2414,-3.24,-3.2412,-3.2363,-3.2364,-3.2327,-3.2323,-3.2318,-3.2259,-3.2244,-3.219,-3.2162,-3.2135,-3.215,-3.213,-3.2162,-3.2155,-3.2186,-3.2183,-3.2301,-3.2312,-3.2186,-3.2187,-3.2188,0,-3.2577,-3.2586,-3.2531,-3.2524,-3.2502,-3.2493,-3.248,-3.2421,-3.241,-3.237,-3.2375,-3.2355,-3.2336,-3.2314,-3.2267,-3.2245,-3.2222,-3.2265,-3.2218,-3.2233,-3.222,-3.222,-3.2219,-3.2275,-3.2276,-3.2278,-3.2279,0,-3.269,-3.2664,-3.2649,-3.2624,-3.2611,-3.2589,-3.2563,-3.2561,-3.2494,-3.2485,-3.2469,-3.2454,-3.2424,-3.2404,-3.2373,-3.2346,-3.2301,-3.2294,-3.2299,-3.2314,-3.2332,-3.2321,-3.2188,-3.2291,-3.229,-3.2289,-3.2288,-3.2288,-3.2778,-3.2782,-3.2744,-3.2728,-3.2702,-3.2679,-3.2677,-3.2639,-3.2624,-3.2595,-3.2561,-3.2548,-3.251,-3.2464,-3.2441,-3.2429,-3.2404,-3.2412,-3.2414,-3.2416,-3.2423,-3.2335,-3.2423,-3.2423,-3.2422,-3.2422,-3.2422,0,-3.2886,-3.2857,-3.2844,-3.2809,-3.2797,-3.2755,-3.2724,-3.2716,-3.2705,-3.2674,-3.2656,-3.2635,-3.2615,-3.2567,-3.2542,-3.2541,-3.2519,-3.2536,-3.2535,-3.2529,-3.2448,-3.2445,-3.2554,-3.2554,-3.2554,-3.2554,-3.2554,-3.2554,-3.294,-3.2944,-3.2914,-3.2904,-3.2874,-3.2861,-3.2847,-3.2825,-3.2799,-3.2779,-3.2762,-3.2731,-3.2692,-3.2663,-3.2641,-3.2628,-3.262,-3.2644,-3.2623,-3.2548,-3.2535,-3.2523,-3.252,-3.2643,-3.2643,-3.2705,-3.2705,-3.2706]}]]